Location: ???? ???? ?????
(31.2680°N, 31.7283°E)
Time: 19:30:02
(UTC+00:00)

Cosmos 2369 Rocket - Pass Details

Date: 13 July 2020
Orbit: 830 x 851 km, 71.0° (Epoch: 05 August)

Event Time Altitude Azimuth Distance (km) Brightness Sun altitude
Rises 19:57:42 0° 359° (N) 3,379 6.2 -29.6°
Reaches altitude 10° 20:01:07 10° 21° (NNE) 2,445 5.0 -30.0°
Enters shadow 20:04:08 16° 53° (NE) 2,037 4.2 -30.3°
